User: anonymous   Login
Location: Unspecified
(48.1170°N, 0.0000°E)
Time: 19:51:14
(UTC+00:00)
Language:

M-CUBED/EXP-1 PRIME - Orbit

View from above orbital plane
View from above orbital plane
View from above satellite
View from above satellite

Ground track
Ground track

The orbit data is extracted from the following two-line orbital elements,

1 37855U 11061F   19228.74904923 +.00000616 +00000-0 +39010-4 0  9997
2 37855 101.7100 154.6590 0173039 261.7462 096.4095 15.05533298425196
Epoch (UTC): 16 August 2019 17:58:37
Eccentricity: 0.0173039
inclination: 101.7100°
perigee height: 430 km
apogee height: 670 km
right ascension of ascending node: 154.6590°
argument of perigee: 261.7462°
revolutions per day: 15.05533298
mean anomaly at epoch: 96.4095°
orbit number at epoch: 42519

The dashed part of the orbit path shows where the satellite is in the earth's shadow,  

DLR